[[{"header":{"parameterUnit":"m.s-1","parameterCategory":2,"la1":30.2991,"la2":30.254,"lo1":-89.0895,"lo2":-89.0444,"dy":0.0017,"dx":0.0017,"nx":28,"ny":28,"refTime":"2023-10-23T03:00:00:Z","depth":"0","parameterNumber":2,"parameterNumberName":"U-component_of_CURRENTS"},"data":[0,0,0,0,0,0,0,0,0,0,0,0,0,0,0,0,0,0,0,0,0,0,0,0,0,0,0,0,0,0,0,0,0,0,0,0,0,0,0,0,0,0,0,0,0,0,0,0,0,0,0,0,0,0,0,0,0,0,0.1128,0.1128,0,0.1123,0.1123,0.1123,0.1103,0.1103,0.1102,0.1102,0.1119,0.112,0.112,0,0,0,0,0,0,0,0,0,0,0,0,0,0.1193,0.1192,0.1128,0.1128,0.1128,0.1123,0.1123,0.1123,0.1103,0.1103,0.1102,0.1102,0.1118,0.1119,0.1121,0,0,0,0,0,0,0,0,0,0,0,0,0,0.1174,0.1191,0.1128,0.1117,0.1116,0.1123,0.1123,0.1123,0.1104,0.1103,0.1102,0.1101,0.1118,0.1119,0.1121,0.1144,0,0,0.1125,0.1125,0,0,0,0,0,0,0,0,0.1175,0.1172,0.1119,0.1118,0.1117,0.1113,0.1152,0.1131,0.1104,0.1109,0.1102,0.1101,0.1119,0.112,0.1121,0.1145,0.1145,0.1125,0.1126,0.1126,0.1127,0,0,0,0,0,0,0,0.1177,0.1173,0.1127,0.1119,0.1118,0.1138,0.1133,0.1149,0.1119,0.1108,0.1107,0.1106,0.1119,0.112,0.1122,0.1146,0.1125,0.1126,0.1127,0.1127,0.1229,0.1231,0,0,0,0,0,0,0.1173,0.1173,0.1127,0.1126,0.1145,0.1137,0.1132,0.1115,0.1118,0.1118,0.1106,0.1105,0.1118,0.112,0.1122,0.1179,0.1126,0.1128,0.1128,0.1227,0.1229,0.1231,0,0,0,0,0,0,0.1174,0.1168,0.1127,0.1151,0.1147,0.1136,0.1117,0.1115,0.1117,0.1116,0.1116,0.111,0.1117,0.112,0.1142,0.1178,0.1128,0.1129,0.1225,0.1228,0.123,0.1274,0,0,0,0,0,0,0.1176,0.1169,0.1171,0.115,0.1145,0.1137,0.1118,0.1116,0.1117,0.1115,0.112,0.112,0.1117,0.114,0.1143,0.1179,0.1131,0.1222,0.1226,0.1229,0.127,0.1278,0.1284,0,0,0,0,0,0.1178,0.1179,0.1171,0.1167,0.1143,0.1137,0.1138,0.1128,0.1118,0.1126,0.1129,0.112,0.1165,0.1142,0.1146,0.1183,0.1221,0.1225,0.1229,0.1267,0.1276,0.1284,0,0,0,0,0,0,0.1218,0.1177,0.1167,0.1158,0.1152,0.1134,0.1146,0.1133,0.1141,0.1141,0.1135,0.1137,0.1175,0.1174,0.1149,0.1225,0.1196,0.1201,0.1223,0.1232,0.1239,0.1368,0.1132,0,0,0,0,0,0.1226,0.1205,0.1184,0.1177,0.1179,0.1164,0.1165,0.1153,0.115,0.1152,0.1151,0.1165,0.1197,0.1207,0.1227,0.1261,0.1371,0.1292,0.1299,0.1305,0.1414,0.16,0.1637,0.1245,0.1245,0.1245,0,0,0.1237,0.1214,0.1203,0.1184,0.118,0.1187,0.1163,0.1163,0.1181,0.1155,0.1182,0.1189,0.1212,0.1254,0.1272,0.1255,0.146,0.131,0.1315,0.1424,0.1609,0.1648,0.1683,0.1248,0.1247,0.1247,0,0,0.1258,0.1234,0.1234,0.1222,0.1214,0.1209,0.121,0.1195,0.1209,0.1222,0.1228,0.129,0.1273,0.1347,0.1371,0.1442,0.1493,0.1398,0.154,0.1715,0.1751,0.1784,0.1921,0.1967,0.14,0.14,0.14,0,0.1295,0.1277,0.1239,0.1239,0.125,0.122,0.1246,0.1249,0.1243,0.1309,0.1236,0.1363,0.1353,0.1507,0.1518,0.1471,0.1556,0.1492,0.1731,0.1767,0.18,0.1933,0.1983,0.1403,0.1403,0.1402,0.1402,0,0.1304,0.1304,0.1307,0.1295,0.1299,0.1314,0.1311,0.1343,0.1343,0.1373,0.1505,0.1516,0.1626,0.1593,0.157,0.1797,0.1773,0.1716,0.1717,0.1844,0.1973,0.2024,0.1407,0.1406,0.1405,0.1404,0,0,0.1405,0.1333,0.1347,0.1368,0.1339,0.1362,0.1405,0.1497,0.1598,0.1599,0.1765,0.1818,0.1868,0.191,0.1898,0.2036,0.2285,0.1976,0.1984,0.213,0.2663,0.2652,0.2706,0.2252,0.2262,0.227,0.264,0,0.1463,0.147,0.1421,0.1476,0.1505,0.1498,0.156,0.1631,0.1686,0.1824,0.1921,0.2042,0.1967,0.203,0.2168,0.2254,0.2432,0.2192,0.2511,0.2523,0.2513,0.2771,0.2724,0.3054,0.269,0.2698,0.2705,0,0.1548,0.1536,0.1576,0.1619,0.1639,0.1664,0.1824,0.1866,0.2037,0.2095,0.226,0.2306,0.2534,0.242,0.2754,0.2592,0.2689,0.2745,0.2758,0.2806,0.2613,0.288,0.3161,0.3035,0.2784,0.2777,0.2772,0,0.1697,0.1694,0.1738,0.1733,0.1745,0.1815,0.1853,0.1986,0.2069,0.23,0.239,0.2642,0.2748,0.2954,0.3029,0.293,0.3368,0.3234,0.3349,0.3344,0.3414,0.34,0.3652,0.3576,0.3575,0.3574,0.3573,0,0.1823,0.1871,0.1812,0.1835,0.1943,0.1928,0.2084,0.2166,0.2306,0.2431,0.2553,0.2694,0.2887,0.3088,0.3188,0.3443,0.3517,0.3512,0.3503,0.3414,0.3396,0.3372,0.3259,0.3587,0.3584,0.3582,0.3579,0,0.1986,0.1935,0.199,0.1996,0.2006,0.2091,0.2144,0.2239,0.2375,0.2543,0.2621,0.2808,0.3084,0.3267,0.3583,0.363,0.3795,0.3935,0.3795,0.3767,0.3745,0.3634,0.3821,0.3727,0.4204,0.4207,0.4209,0,0.2058,0.2096,0.2095,0.2092,0.2085,0.2164,0.2192,0.2286,0.2346,0.2585,0.2655,0.2963,0.3139,0.3601,0.382,0.4134,0.3931,0.4225,0.4073,0.3878,0.3748,0.3485,0.3369,0.4156,0.4158,0.4159,0.4161,0,0.2179,0.2176,0.2177,0.2163,0.2174,0.2193,0.223,0.2294,0.2403,0.2544,0.2717,0.2895,0.3341,0.3629,0.4021,0.4189,0.4028,0.4265,0.4148,0.3879,0.3541,0.3393,0.3716,0.4174,0.4173,0.4172,0.4171,0.417,0.2235,0.2249,0.2203,0.2198,0.2189,0.2164,0.2173,0.222,0.232,0.2483,0.2676,0.2923,0.3387,0.3946,0.407,0.429,0.4153,0.425,0.4179,0.3964,0.3759,0.4105,0.4466,0.4467,0.4467,0.4467,0.4468,0,0.2227,0.2202,0.2207,0.2147,0.2095,0.2108,0.2122,0.2114,0.2179,0.242,0.2586,0.3077,0.3452,0.3821,0.4232,0.4192,0.3994,0.4115,0.3752,0.3677,0.4123,0.4001,0.4176,0.4177,0.4177,0.4177,0.4177,0.4177,0.2193,0.2153,0.2138,0.2022,0.198,0.1886,0.1875,0.1916,0.2051,0.2306,0.2571,0.2833,0.3345,0.3864,0.4036,0.4009,0.3681,0.3595,0.3487,0.379,0.3793,0.3796,0.3659,0.3759,0.3759,0.2933,0.2927,0.2923]},{"header":{"parameterUnit":"m.s-1","parameterCategory":2,"la1":30.2991,"la2":30.254,"lo1":-89.0895,"lo2":-89.0444,"dy":0.0017,"dx":0.0017,"nx":28,"ny":28,"refTime":"2023-10-23T03:00:00:Z","depth":"0","parameterNumber":3,"parameterNumberName":"V-component_of_CURRENTS"},"data":[0,0,0,0,0,0,0,0,0,0,0,0,0,0,0,0,0,0,0,0,0,0,0,0,0,0,0,0,0,0,0,0,0,0,0,0,0,0,0,0,0,0,0,0,0,0,0,0,0,0,0,0,0,0,0,0,0,0,-0.0052,-0.0053,0,-0.0102,-0.0103,-0.0103,-0.0124,-0.0125,-0.0125,-0.0125,-0.0139,-0.0139,-0.0139,0,0,0,0,0,0,0,0,0,0,0,0,0,0.0028,0.0027,-0.0052,-0.0053,-0.0054,-0.0102,-0.0103,-0.0103,-0.0124,-0.0125,-0.0125,-0.0125,-0.0139,-0.0139,-0.0139,0,0,0,0,0,0,0,0,0,0,0,0,0,-0.001,0.0027,-0.0052,-0.0073,-0.0075,-0.0102,-0.0103,-0.0103,-0.0124,-0.0125,-0.0125,-0.0125,-0.0139,-0.0139,-0.0139,-0.0137,0,0,-0.014,-0.0141,0,0,0,0,0,0,0,0,-0.0008,-0.0013,-0.0069,-0.0071,-0.0074,-0.011,-0.008,-0.0113,-0.0124,-0.0103,-0.0125,-0.0125,-0.0127,-0.0129,-0.0134,-0.0137,-0.0138,-0.014,-0.0141,-0.0141,-0.0141,0,0,0,0,0,0,0,-0.0005,-0.0011,-0.0069,-0.007,-0.0073,-0.0078,-0.0083,-0.0086,-0.011,-0.0105,-0.0107,-0.0117,-0.0128,-0.0134,-0.0135,-0.0138,-0.014,-0.0141,-0.0141,-0.0141,-0.007,-0.0068,0,0,0,0,0,0,-0.0005,-0.0008,-0.0068,-0.0071,-0.0044,-0.0079,-0.0085,-0.0096,-0.0111,-0.0115,-0.0116,-0.0118,-0.0133,-0.0134,-0.0135,-0.0056,-0.0141,-0.0141,-0.0141,-0.0072,-0.007,-0.0067,0,0,0,0,0,0,-0.0003,-0.001,-0.0066,-0.0043,-0.0051,-0.0081,-0.0092,-0.0097,-0.0102,-0.0121,-0.0123,-0.0117,-0.0133,-0.0135,-0.0113,-0.0059,-0.0141,-0.0142,-0.0075,-0.0071,-0.0069,0.0054,0,0,0,0,0,0,-0.0,-0.0008,-0.0013,-0.0043,-0.0052,-0.0073,-0.0092,-0.0098,-0.0109,-0.011,-0.0122,-0.0124,-0.0134,-0.0112,-0.0113,-0.0061,-0.0142,-0.0077,-0.0073,-0.007,0.0047,0.0061,0.0072,0,0,0,0,0,0.0003,-0.0005,-0.0013,-0.002,-0.0058,-0.0072,-0.0076,-0.0097,-0.0108,-0.0103,-0.0099,-0.0124,-0.0088,-0.011,-0.0112,-0.0059,-0.0079,-0.0074,-0.007,0.0042,0.0058,0.0072,0,0,0,0,0,0,0.0034,-0.0009,-0.0018,-0.0037,-0.0048,-0.0077,-0.0081,-0.0094,-0.0089,-0.0087,-0.0103,-0.0103,-0.0059,-0.0082,-0.0107,-0.0028,-0.0085,-0.0081,0.0,0.0015,0.0028,0.0095,-0.0142,0,0,0,0,0,0.0037,0.002,-0.0011,-0.002,-0.003,-0.0053,-0.0062,-0.0071,-0.0076,-0.0076,-0.0083,-0.0075,-0.0042,-0.0033,-0.0023,0.0011,0.0001,0.0045,0.0058,0.0069,0.0123,0.0142,0.0161,-0.0052,-0.0052,-0.0052,0,0,0.0051,0.0023,0.0016,-0.0014,-0.0028,-0.0012,-0.0058,-0.0065,-0.0023,-0.0076,-0.0028,-0.0036,-0.0023,0.003,0.0047,0.0017,0.0118,0.0075,0.0084,0.0134,0.0149,0.017,0.0188,-0.0049,-0.005,-0.005,0,0,0.0074,0.0042,0.004,0.0037,0.0017,0.0011,0.0012,-0.0009,0.0008,0.0043,0.0037,0.0075,0.008,0.0129,0.0151,0.0238,0.0184,0.0217,0.0339,0.0355,0.0374,0.039,0.0377,0.0391,0.0223,0.0224,0.0224,0,0.0091,0.0093,0.0043,0.0053,0.0077,0.003,0.0073,0.0081,0.0079,0.0134,0.0076,0.0169,0.0152,0.0285,0.0311,0.0275,0.0251,0.0279,0.0374,0.039,0.0404,0.0387,0.0401,0.023,0.0229,0.0229,0.0228,0,0.0126,0.0137,0.0139,0.0148,0.0167,0.0188,0.0202,0.0234,0.0239,0.0264,0.0369,0.0354,0.0426,0.0411,0.0387,0.0502,0.0439,0.0385,0.0338,0.0433,0.0408,0.0421,0.0239,0.0237,0.0235,0.0233,0,0,0.0141,0.0161,0.0165,0.0218,0.0229,0.0261,0.0342,0.0429,0.0527,0.0517,0.0654,0.069,0.0679,0.0706,0.0675,0.0682,0.0732,0.0579,0.0576,0.0573,0.0743,0.0688,0.0694,0.0676,0.0679,0.0682,0.0674,0,0.0192,0.0254,0.0256,0.0363,0.0409,0.0438,0.0537,0.0617,0.0666,0.0773,0.08,0.0891,0.0793,0.083,0.0832,0.0768,0.0775,0.0739,0.0648,0.0646,0.0592,0.0713,0.072,0.0713,0.0685,0.0687,0.0689,0,0.0231,0.0276,0.0379,0.0518,0.0547,0.0615,0.08,0.0881,0.1015,0.1061,0.115,0.1146,0.1216,0.1082,0.1057,0.1026,0.0918,0.0837,0.0833,0.0765,0.0618,0.0619,0.0736,0.0481,0.0707,0.0706,0.0704,0,0.0286,0.0379,0.0481,0.0518,0.0645,0.0743,0.0832,0.0977,0.1094,0.1246,0.1327,0.1393,0.1413,0.1332,0.1158,0.1113,0.1077,0.099,0.085,0.0841,0.0831,0.0817,0.071,0.0985,0.0985,0.0985,0.0986,0,0.035,0.0438,0.0518,0.0578,0.0757,0.0824,0.103,0.1132,0.1293,0.1445,0.1475,0.1577,0.1465,0.1417,0.1255,0.1101,0.1156,0.0927,0.0866,0.0867,0.0857,0.0618,0.0484,0.0985,0.0985,0.0985,0.0985,0,0.0407,0.0443,0.0575,0.0719,0.078,0.0914,0.1129,0.1273,0.1404,0.1597,0.1652,0.1719,0.1671,0.1535,0.1384,0.1216,0.095,0.0993,0.0988,0.0929,0.0578,0.0452,0.0375,0.0252,0.0888,0.0887,0.0887,0,0.045,0.0507,0.0665,0.0749,0.082,0.1007,0.1144,0.1318,0.1464,0.1672,0.1769,0.1795,0.1832,0.1619,0.1363,0.1139,0.0909,0.0949,0.089,0.0613,0.0428,0.0359,0.0255,0.0903,0.0902,0.0901,0.0901,0,0.0534,0.0571,0.0669,0.082,0.0961,0.1154,0.1349,0.1471,0.1669,0.1811,0.1957,0.2004,0.185,0.1649,0.1342,0.1168,0.0791,0.093,0.0668,0.0484,0.0386,0.0218,0.0812,0.0897,0.0897,0.0898,0.0898,0.0898,0.0587,0.0659,0.0749,0.0909,0.1067,0.1265,0.1413,0.1588,0.1794,0.2004,0.2055,0.2159,0.1902,0.1524,0.1206,0.0694,0.072,0.053,0.0415,0.0381,0.0239,0.0814,0.0805,0.0805,0.0805,0.0805,0.0805,0,0.063,0.0697,0.0836,0.1016,0.1181,0.1272,0.1526,0.1655,0.184,0.2053,0.2182,0.221,0.1781,0.1361,0.0714,0.0262,0.011,0.0023,-0.008,-0.0153,0.0385,0.0356,0.022,0.022,0.022,0.0221,0.0221,0.0221,0.0647,0.0749,0.0816,0.1059,0.1199,0.1415,0.1549,0.172,0.1905,0.2156,0.2318,0.2454,0.2246,0.0947,-0.0015,-0.0243,-0.0588,-0.0612,-0.0815,-0.0487,-0.0449,-0.0413,-0.0474,-0.0781,-0.0782,-0.129,-0.1296,-0.13]}],[{"header":{"parameterUnit":"m.s-1","parameterCategory":2,"la1":30.2991,"la2":30.254,"lo1":-89.0895,"lo2":-89.0444,"dy":0.0017,"dx":0.0017,"nx":28,"ny":28,"refTime":"2023-10-23T03:00:00:Z","depth":"2","parameterNumber":2,"parameterNumberName":"U-component_of_CURRENTS"},"data":[0,0,0,0,0,0,0,0,0,0,0,0,0,0,0,0,0,0,0,0,0,0,0,0,0,0,0,0,0,0,0,0,0,0,0,0,0,0,0,0,0,0,0,0,0,0,0,0,0,0,0,0,0,0,0,0,0,0,0.2095,0.2095,0,0.2162,0.2163,0.2164,0.2198,0.2198,0.2199,0.2199,0.223,0.2231,0.2232,0,0,0,0,0,0,0,0,0,0,0,0,0,0.2009,0.201,0.2094,0.2095,0.2096,0.2162,0.2163,0.2164,0.2198,0.2198,0.2199,0.2199,0.223,0.2231,0.2232,0,0,0,0,0,0,0,0,0,0,0,0,0,0.2057,0.201,0.2094,0.2122,0.2125,0.2162,0.2163,0.2164,0.2198,0.2198,0.2199,0.2199,0.223,0.2231,0.2232,0.2235,0,0,0.2235,0.2236,0,0,0,0,0,0,0,0,0.2054,0.206,0.2117,0.212,0.2124,0.2173,0.2145,0.2187,0.2198,0.2169,0.2199,0.2199,0.2208,0.2211,0.2223,0.2237,0.2238,0.2235,0.2236,0.2237,0.2237,0,0,0,0,0,0,0,0.2051,0.2058,0.212,0.2118,0.2122,0.2136,0.2143,0.2153,0.2185,0.2172,0.2175,0.2184,0.221,0.2222,0.2224,0.2238,0.2235,0.2236,0.2237,0.2238,0.2285,0.2285,0,0,0,0,0,0,0.2044,0.2054,0.2118,0.2122,0.209,0.2138,0.2145,0.2156,0.2186,0.2192,0.2184,0.2186,0.222,0.2222,0.2225,0.2246,0.2237,0.2238,0.2238,0.2284,0.2285,0.2286,0,0,0,0,0,0,0.2042,0.2049,0.2115,0.2091,0.21,0.2139,0.2151,0.2158,0.2176,0.2196,0.2201,0.2196,0.222,0.2223,0.2243,0.2247,0.2238,0.2239,0.2283,0.2284,0.2285,0.2279,0,0,0,0,0,0,0.2039,0.2048,0.2053,0.209,0.2101,0.2137,0.2151,0.2159,0.2181,0.2184,0.2208,0.2211,0.222,0.2241,0.2244,0.2248,0.224,0.2283,0.2284,0.2285,0.2278,0.2279,0.228,0,0,0,0,0,0.2036,0.2036,0.2053,0.2061,0.2108,0.2137,0.2144,0.2172,0.2182,0.2189,0.221,0.221,0.225,0.2243,0.2246,0.2251,0.2282,0.2284,0.2285,0.2278,0.2279,0.228,0,0,0,0,0,0,0.1999,0.2041,0.206,0.2073,0.2106,0.2144,0.2154,0.2173,0.2197,0.2201,0.2217,0.2222,0.224,0.2249,0.224,0.2269,0.2266,0.2268,0.226,0.2262,0.2263,0.2286,0.2241,0,0,0,0,0,0.1995,0.2007,0.2052,0.2062,0.208,0.2119,0.2135,0.2157,0.2183,0.2194,0.2212,0.2232,0.2248,0.2257,0.2272,0.2286,0.2335,0.2293,0.2294,0.2294,0.2317,0.2385,0.2394,0.229,0.229,0.229,0,0,0.1983,0.2008,0.2016,0.2056,0.2085,0.2113,0.2129,0.2156,0.2178,0.2193,0.2222,0.2235,0.2253,0.2272,0.2281,0.2279,0.2353,0.2296,0.2296,0.2319,0.2387,0.2398,0.2407,0.2291,0.2291,0.2291,0,0,0.1968,0.1992,0.2002,0.203,0.2075,0.2105,0.2114,0.2158,0.2176,0.2205,0.2222,0.2245,0.2264,0.2286,0.2297,0.2314,0.2355,0.2311,0.2336,0.24,0.241,0.2418,0.2508,0.2525,0.2311,0.2311,0.2311,0,0.1953,0.1978,0.2008,0.203,0.2058,0.2102,0.2127,0.2152,0.2196,0.2223,0.2212,0.2275,0.2276,0.232,0.2321,0.2317,0.2372,0.2325,0.2402,0.2412,0.2422,0.2511,0.253,0.2311,0.2311,0.2311,0.2311,0,0.1949,0.1977,0.1986,0.2034,0.2063,0.2091,0.2138,0.2172,0.2199,0.2231,0.2279,0.2291,0.2341,0.2328,0.2327,0.239,0.2416,0.2394,0.2399,0.2432,0.2524,0.2544,0.2311,0.2311,0.2311,0.2311,0,0,0.1894,0.1971,0.1975,0.2009,0.2072,0.2097,0.2145,0.2208,0.2252,0.2283,0.2345,0.2357,0.2386,0.2402,0.2405,0.2443,0.2542,0.2447,0.245,0.2538,0.2718,0.2572,0.258,0.2535,0.2538,0.254,0.2761,0,0.1888,0.1938,0.1975,0.2025,0.206,0.2122,0.2162,0.2223,0.2274,0.2342,0.2378,0.2429,0.2407,0.2435,0.2475,0.2528,0.2592,0.2487,0.2674,0.268,0.2546,0.2596,0.2347,0.2507,0.2781,0.2784,0.2787,0,0.1867,0.1912,0.1965,0.2046,0.2066,0.2101,0.2198,0.224,0.2344,0.2385,0.2462,0.2503,0.2589,0.2547,0.2694,0.2633,0.269,0.2719,0.2728,0.2609,0.2568,0.2517,0.2533,0.282,0.2817,0.2815,0.2813,0,0.1822,0.1898,0.1948,0.1975,0.2071,0.2111,0.2165,0.226,0.2313,0.2434,0.2501,0.2599,0.2667,0.2751,0.2827,0.278,0.2984,0.2929,0.2865,0.2858,0.2691,0.2661,0.3048,0.3048,0.3047,0.3047,0.3046,0,0.1797,0.1833,0.1936,0.1963,0.202,0.2093,0.2161,0.2233,0.2349,0.2442,0.2529,0.2625,0.2719,0.2841,0.2893,0.2952,0.3059,0.2895,0.2901,0.268,0.2648,0.2944,0.2929,0.3055,0.3053,0.3052,0.305,0,0.1738,0.1807,0.1865,0.1971,0.2002,0.2043,0.2155,0.2223,0.2331,0.2469,0.2522,0.2682,0.2837,0.2936,0.3083,0.3024,0.3097,0.3096,0.2836,0.2802,0.292,0.2903,0.3047,0.3043,0.304,0.3038,0.3036,0,0.1717,0.1744,0.1853,0.1899,0.195,0.2023,0.209,0.2202,0.2296,0.2508,0.2594,0.277,0.2879,0.3027,0.2968,0.3033,0.3131,0.2811,0.2634,0.2927,0.292,0.2907,0.2894,0.2449,0.2442,0.2437,0.2432,0,0.1675,0.1717,0.1773,0.1869,0.1944,0.2006,0.2122,0.2179,0.235,0.2457,0.263,0.2722,0.2839,0.2744,0.2769,0.2759,0.276,0.2694,0.312,0.2442,0.2368,0.2358,0.2365,0.2384,0.2389,0.2392,0.2395,0.2397,0.1647,0.1672,0.1762,0.184,0.1923,0.1997,0.2026,0.2161,0.2258,0.2369,0.25,0.2521,0.2535,0.2399,0.2379,0.233,0.2484,0.236,0.2377,0.2399,0.2244,0.2163,0.2117,0.212,0.2123,0.2125,0.2127,0,0.1624,0.1673,0.174,0.1829,0.1888,0.1955,0.2061,0.2065,0.215,0.2196,0.2234,0.1987,0.1939,0.2032,0.1856,0.1812,0.179,0.1772,0.1742,0.1789,0.1832,0.1647,0.1363,0.1362,0.136,0.1358,0,0,0.1623,0.167,0.17,0.1774,0.1843,0.1891,0.1928,0.193,0.1937,0.1802,0.1731,0.1749,0.1898,0.157,0.1535,0.1449,0.1608,0.1386,0.1991,0.2,0.2041,0.2155,0.1921,0,0,0,0,0]},{"header":{"parameterUnit":"m.s-1","parameterCategory":2,"la1":30.2991,"la2":30.254,"lo1":-89.0895,"lo2":-89.0444,"dy":0.0017,"dx":0.0017,"nx":28,"ny":28,"refTime":"2023-10-23T03:00:00:Z","depth":"2","parameterNumber":3,"parameterNumberName":"V-component_of_CURRENTS"},"data":[0,0,0,0,0,0,0,0,0,0,0,0,0,0,0,0,0,0,0,0,0,0,0,0,0,0,0,0,0,0,0,0,0,0,0,0,0,0,0,0,0,0,0,0,0,0,0,0,0,0,0,0,0,0,0,0,0,0,-0.0552,-0.0553,0,-0.0609,-0.061,-0.061,-0.0628,-0.0627,-0.0627,-0.0627,-0.0661,-0.0662,-0.0663,0,0,0,0,0,0,0,0,0,0,0,0,0,-0.0455,-0.0457,-0.0552,-0.0553,-0.0554,-0.0609,-0.061,-0.0611,-0.0628,-0.0627,-0.0627,-0.0627,-0.0661,-0.0662,-0.0663,0,0,0,0,0,0,0,0,0,0,0,0,0,-0.0501,-0.0457,-0.0552,-0.0571,-0.0573,-0.0609,-0.061,-0.0611,-0.0628,-0.0627,-0.0627,-0.0627,-0.066,-0.0662,-0.0663,-0.0676,0,0,-0.0668,-0.0669,0,0,0,0,0,0,0,0,-0.0499,-0.0505,-0.0567,-0.0569,-0.0572,-0.0613,-0.0588,-0.0632,-0.0628,-0.0605,-0.0627,-0.0627,-0.0644,-0.0647,-0.0656,-0.0678,-0.0679,-0.0668,-0.0669,-0.067,-0.067,0,0,0,0,0,0,0,-0.0496,-0.0502,-0.0573,-0.0568,-0.0571,-0.0575,-0.0581,-0.0596,-0.0623,-0.0607,-0.0609,-0.0618,-0.0645,-0.0654,-0.0657,-0.068,-0.0668,-0.0669,-0.067,-0.0671,-0.07,-0.07,0,0,0,0,0,0,-0.0493,-0.05,-0.0571,-0.0575,-0.0536,-0.0577,-0.0584,-0.0598,-0.0623,-0.0628,-0.0618,-0.0619,-0.0652,-0.0655,-0.0658,-0.0661,-0.067,-0.0671,-0.0672,-0.07,-0.07,-0.07,0,0,0,0,0,0,-0.0491,-0.0499,-0.0569,-0.0539,-0.0549,-0.0579,-0.0595,-0.06,-0.061,-0.0633,-0.0636,-0.0624,-0.0652,-0.0656,-0.0669,-0.0663,-0.0672,-0.0673,-0.07,-0.07,-0.07,-0.0677,0,0,0,0,0,0,-0.0488,-0.0498,-0.0505,-0.054,-0.0551,-0.0587,-0.0596,-0.0601,-0.0617,-0.0618,-0.0638,-0.0641,-0.0652,-0.0667,-0.0671,-0.0665,-0.0674,-0.07,-0.07,-0.07,-0.0678,-0.0676,-0.0674,0,0,0,0,0,-0.0484,-0.0494,-0.0505,-0.0514,-0.056,-0.0588,-0.0593,-0.0612,-0.0617,-0.062,-0.0634,-0.0641,-0.0668,-0.0668,-0.0673,-0.0668,-0.07,-0.07,-0.07,-0.0678,-0.0676,-0.0674,0,0,0,0,0,0,-0.0451,-0.0498,-0.051,-0.0533,-0.0557,-0.0591,-0.0598,-0.0612,-0.0627,-0.0626,-0.0644,-0.0648,-0.0659,-0.0667,-0.0667,-0.0675,-0.0683,-0.0684,-0.0665,-0.0663,-0.0662,-0.0635,-0.0676,0,0,0,0,0,-0.0449,-0.0471,-0.0509,-0.0526,-0.0538,-0.0568,-0.0581,-0.0595,-0.0615,-0.0622,-0.0637,-0.065,-0.0661,-0.0665,-0.068,-0.0685,-0.068,-0.0683,-0.0681,-0.0679,-0.066,-0.0652,-0.0647,-0.0698,-0.0698,-0.0698,0,0,-0.0442,-0.047,-0.0482,-0.0521,-0.0541,-0.0553,-0.0574,-0.0594,-0.0598,-0.0623,-0.0631,-0.0649,-0.0663,-0.067,-0.0674,-0.0675,-0.0665,-0.0679,-0.0678,-0.0659,-0.0651,-0.0646,-0.0642,-0.0698,-0.0698,-0.0698,0,0,-0.0435,-0.0462,-0.0476,-0.0493,-0.0525,-0.0543,-0.0548,-0.0581,-0.0589,-0.0605,-0.062,-0.0629,-0.0654,-0.0656,-0.0661,-0.0657,-0.066,-0.0666,-0.063,-0.0622,-0.0618,-0.0614,-0.0608,-0.0604,-0.0659,-0.0659,-0.0659,0,-0.0422,-0.0445,-0.0481,-0.0492,-0.0497,-0.0536,-0.0536,-0.0555,-0.0587,-0.0579,-0.0603,-0.0618,-0.0642,-0.0629,-0.0633,-0.0651,-0.0648,-0.0638,-0.0619,-0.0614,-0.061,-0.0606,-0.0601,-0.0658,-0.0658,-0.0658,-0.0658,0,-0.0425,-0.0436,-0.0442,-0.0469,-0.0478,-0.0487,-0.0514,-0.0521,-0.0539,-0.055,-0.0549,-0.0581,-0.0577,-0.0598,-0.0619,-0.0599,-0.0607,-0.0623,-0.0621,-0.0604,-0.0601,-0.0596,-0.0656,-0.0657,-0.0657,-0.0657,0,0,-0.0407,-0.0439,-0.0438,-0.0425,-0.0462,-0.0458,-0.047,-0.0473,-0.0446,-0.0491,-0.045,-0.0502,-0.0508,-0.0513,-0.0538,-0.0542,-0.0532,-0.0569,-0.0569,-0.0557,-0.0513,-0.0549,-0.0548,-0.0545,-0.0544,-0.0543,-0.0525,0,-0.0393,-0.0393,-0.0417,-0.0394,-0.0388,-0.0409,-0.0398,-0.0402,-0.0414,-0.0386,-0.0418,-0.0397,-0.0479,-0.046,-0.0484,-0.0509,-0.0517,-0.0535,-0.0536,-0.0535,-0.0565,-0.0543,-0.0533,-0.0518,-0.052,-0.052,-0.0519,0,-0.038,-0.038,-0.0362,-0.0326,-0.0321,-0.0312,-0.0272,-0.0271,-0.0259,-0.0258,-0.0262,-0.0275,-0.0284,-0.0348,-0.0397,-0.0404,-0.0454,-0.0489,-0.0489,-0.0522,-0.0562,-0.0535,-0.051,-0.0511,-0.0512,-0.0513,-0.0513,0,-0.0327,-0.0323,-0.0299,-0.0295,-0.0279,-0.0254,-0.0242,-0.0229,-0.0189,-0.0168,-0.0114,-0.0155,-0.0134,-0.0213,-0.0303,-0.0341,-0.0345,-0.0404,-0.0485,-0.0488,-0.0477,-0.0482,-0.0428,-0.0428,-0.0428,-0.0428,-0.0428,0,-0.029,-0.0259,-0.0267,-0.0248,-0.0178,-0.0192,-0.0116,-0.0107,-0.0062,0.0029,-0.0036,0.0037,-0.0097,-0.0118,-0.0236,-0.0336,-0.0295,-0.0463,-0.048,-0.0472,-0.0476,-0.0468,-0.0473,-0.0427,-0.0428,-0.0428,-0.0428,0,-0.0219,-0.0241,-0.0192,-0.0169,-0.0153,-0.0099,-0.0028,0.0041,0.0057,0.0179,0.0207,0.0198,0.0162,0.0032,-0.0073,-0.0229,-0.0329,-0.0372,-0.0358,-0.0374,-0.05,-0.0504,-0.0474,-0.0475,-0.0476,-0.0477,-0.0477,0,-0.0177,-0.0156,-0.012,-0.0071,-0.0054,0.0011,0.0078,0.0099,0.0185,0.0293,0.0386,0.0383,0.0411,0.022,-0.004,-0.0243,-0.0273,-0.0389,-0.0481,-0.0482,-0.0501,-0.0504,-0.0507,-0.0457,-0.0457,-0.0457,-0.0458,0,-0.0077,-0.0075,-0.0033,0.005,0.0121,0.021,0.0303,0.0385,0.0452,0.055,0.069,0.0717,0.0527,0.0299,-0.0017,-0.0166,-0.037,-0.0406,-0.0371,-0.046,-0.0468,-0.0487,-0.0489,-0.046,-0.046,-0.046,-0.046,-0.046,0.0015,0.0068,0.0116,0.0206,0.0291,0.0421,0.0512,0.0634,0.0776,0.0922,0.0892,0.0895,0.0599,0.0176,-0.0061,-0.0346,-0.0373,-0.0505,-0.0502,-0.05,-0.0514,-0.0525,-0.053,-0.053,-0.053,-0.053,-0.053,0,0.0139,0.0189,0.0281,0.0387,0.0507,0.0516,0.0686,0.0797,0.0987,0.1041,0.1106,0.0809,0.0536,0.0244,-0.0199,-0.0473,-0.0479,-0.0528,-0.0496,-0.0494,-0.0491,-0.0504,-0.0517,-0.0518,-0.0518,-0.0518,0,0,0.0215,0.0319,0.0355,0.056,0.064,0.0801,0.0899,0.1071,0.1145,0.1193,0.1121,0.0971,0.0589,0.0265,-0.0077,-0.0288,-0.0316,-0.0317,-0.0311,-0.0231,-0.0224,-0.0473,-0.049,0,0,0,0,0]}],[{"header":{"parameterUnit":"m.s-1","parameterCategory":2,"la1":30.2991,"la2":30.254,"lo1":-89.0895,"lo2":-89.0444,"dy":0.0017,"dx":0.0017,"nx":28,"ny":28,"refTime":"2023-10-23T03:00:00:Z","depth":"4","parameterNumber":2,"parameterNumberName":"U-component_of_CURRENTS"},"data":[0,0,0,0,0,0,0,0,0,0,0,0,0,0,0,0,0,0,0,0,0,0,0,0,0,0,0,0,0,0,0,0,0,0,0,0,0,0,0,0,0,0,0,0,0,0,0,0,0,0,0,0,0,0,0,0,0,0,0.0633,0.0634,0,0.0701,0.0701,0.0702,0.0762,0.0763,0.0764,0.0764,0.0854,0.0856,0.0858,0,0,0,0,0,0,0,0,0,0,0,0,0,0.0569,0.0569,0.0633,0.0634,0.0635,0.0701,0.0701,0.0702,0.0762,0.0763,0.0764,0.0765,0.0854,0.0856,0.0858,0,0,0,0,0,0,0,0,0,0,0,0,0,0.0612,0.0569,0.0633,0.0673,0.0677,0.07,0.0701,0.0703,0.0762,0.0763,0.0764,0.0765,0.0853,0.0856,0.0858,0.0851,0,0,0.0866,0.0867,0,0,0,0,0,0,0,0,0.0609,0.0614,0.0666,0.067,0.0675,0.0725,0.0712,0.0753,0.0762,0.0729,0.0764,0.0766,0.0813,0.0818,0.0827,0.0855,0.0859,0.0866,0.0868,0.0869,0.0869,0,0,0,0,0,0,0,0.0606,0.0611,0.0659,0.0667,0.0672,0.0692,0.0699,0.072,0.0763,0.0732,0.0737,0.0745,0.0815,0.0825,0.083,0.086,0.0866,0.0868,0.087,0.0871,0.0998,0.1,0,0,0,0,0,0,0.0597,0.0608,0.0657,0.0661,0.0645,0.0692,0.07,0.0707,0.0763,0.0773,0.0744,0.0747,0.082,0.0827,0.0834,0.0938,0.0869,0.0871,0.0872,0.0996,0.0998,0.1,0,0,0,0,0,0,0.0595,0.0601,0.0654,0.0637,0.0645,0.0692,0.0699,0.0708,0.0741,0.0772,0.0782,0.0771,0.0821,0.083,0.0892,0.0938,0.0872,0.0874,0.0994,0.0997,0.0999,0.1077,0,0,0,0,0,0,0.0593,0.0599,0.0625,0.0636,0.0646,0.0688,0.0698,0.0708,0.0743,0.0749,0.0798,0.0806,0.0823,0.0888,0.0895,0.094,0.0876,0.0991,0.0995,0.0998,0.1072,0.1082,0.109,0,0,0,0,0,0.0591,0.0608,0.0626,0.0633,0.0671,0.0689,0.0696,0.0732,0.0743,0.0765,0.081,0.0806,0.0915,0.0892,0.0899,0.0946,0.099,0.0994,0.0998,0.1067,0.108,0.109,0,0,0,0,0,0,0.0591,0.0616,0.0636,0.0662,0.0685,0.07,0.072,0.074,0.0789,0.0806,0.0829,0.0841,0.0901,0.0914,0.0888,0.0992,0.0951,0.0957,0.1002,0.1013,0.1022,0.0983,0.0878,0,0,0,0,0,0.0602,0.0629,0.0647,0.0674,0.0677,0.0701,0.072,0.0747,0.078,0.0803,0.0853,0.0895,0.0918,0.096,0.098,0.1047,0.1022,0.1081,0.1091,0.1099,0.1072,0.1074,0.1081,0.1014,0.1014,0.1014,0,0,0.0592,0.063,0.0634,0.0678,0.069,0.0711,0.0715,0.0747,0.079,0.0804,0.0895,0.0918,0.0935,0.1006,0.1037,0.1034,0.1114,0.1104,0.1111,0.1079,0.1079,0.1085,0.1091,0.1017,0.1016,0.1016,0,0,0.0592,0.0628,0.0642,0.0673,0.0719,0.0738,0.0749,0.0794,0.0836,0.0908,0.0927,0.0978,0.1046,0.1076,0.1087,0.1156,0.114,0.1183,0.1229,0.1233,0.1238,0.1242,0.125,0.1254,0.1215,0.1216,0.1216,0,0.0594,0.0627,0.0649,0.0685,0.072,0.0747,0.0774,0.0811,0.0892,0.0931,0.0949,0.1043,0.1065,0.1124,0.1157,0.1174,0.1178,0.1188,0.1243,0.1246,0.1248,0.1256,0.1259,0.122,0.1219,0.1219,0.1218,0,0.06,0.0642,0.065,0.0711,0.0749,0.0781,0.0827,0.0888,0.0942,0.0987,0.1069,0.1112,0.117,0.1197,0.1196,0.1247,0.1245,0.1233,0.121,0.1259,0.1266,0.1267,0.1226,0.1224,0.1223,0.1222,0,0,0.0552,0.0639,0.0646,0.0689,0.0778,0.08,0.0872,0.0936,0.0983,0.1074,0.1136,0.1195,0.1231,0.1244,0.1279,0.1294,0.1327,0.1286,0.1284,0.1285,0.1351,0.1285,0.128,0.1337,0.1337,0.1337,0.1359,0,0.0555,0.0625,0.068,0.0746,0.0771,0.0846,0.0908,0.0983,0.1051,0.1127,0.1172,0.1241,0.1249,0.13,0.1314,0.1308,0.133,0.1322,0.1308,0.1307,0.1234,0.1279,0.1337,0.136,0.1361,0.1361,0.1361,0,0.0545,0.06,0.067,0.0773,0.0789,0.085,0.0958,0.1031,0.1123,0.1178,0.1255,0.1289,0.1347,0.1334,0.1358,0.1361,0.1357,0.1346,0.1347,0.1245,0.1243,0.1293,0.1363,0.1363,0.1363,0.1363,0.1363,0,0.0497,0.0596,0.0665,0.0704,0.0814,0.0873,0.0949,0.1053,0.1119,0.1232,0.1279,0.1343,0.1395,0.1385,0.1386,0.1382,0.138,0.1373,0.131,0.1307,0.1323,0.1318,0.1367,0.1367,0.1367,0.1367,0.1367,0,0.0491,0.0539,0.0654,0.0685,0.0768,0.0868,0.0968,0.1047,0.1159,0.1227,0.1321,0.1364,0.1407,0.142,0.1396,0.1359,0.14,0.1302,0.1301,0.1362,0.1361,0.1326,0.1321,0.1368,0.1368,0.1368,0.1368,0,0.0435,0.0516,0.0589,0.0707,0.0749,0.0824,0.0976,0.1037,0.1162,0.1251,0.1293,0.1391,0.1414,0.1435,0.1424,0.1381,0.1342,0.1322,0.1396,0.1401,0.1265,0.1264,0.1244,0.1242,0.124,0.1238,0.1237,0,0.042,0.0446,0.0577,0.0635,0.0703,0.0819,0.0887,0.1027,0.1092,0.1246,0.1267,0.1349,0.1395,0.1338,0.1357,0.1327,0.1309,0.1297,0.1257,0.1248,0.1249,0.1251,0.1253,0.1234,0.1233,0.1233,0.1232,0,0.0366,0.0423,0.0478,0.058,0.0672,0.0758,0.0869,0.0902,0.1059,0.1165,0.1224,0.1253,0.1282,0.1281,0.1288,0.1253,0.1301,0.1276,0.128,0.1242,0.1235,0.1239,0.1243,0.1226,0.1227,0.1227,0.1228,0,0.0323,0.0351,0.0427,0.0519,0.0623,0.0684,0.075,0.0833,0.091,0.1085,0.1088,0.1177,0.1262,0.1242,0.1226,0.1212,0.1185,0.1143,0.1153,0.116,0.1121,0.1099,0.1038,0,0,0,0,0,0.0289,0.0305,0.0363,0.0462,0.056,0.0617,0.0729,0.0795,0.0927,0.0945,0.1025,0.1051,0.108,0.1115,0.1079,0.1159,0.1167,0.1111,0.1119,0.1188,0.1196,0.1156,0,0,0,0,0,0,0.0264,0.0308,0.0326,0.039,0.0448,0.0535,0.0602,0.0687,0.071,0.0852,0.0868,0.0984,0.1011,0.1082,0.1055,0.1066,0.1049,0.117,0.1168,0.1184,0.1191,0.1197,0.1159,0,0,0,0,0]},{"header":{"parameterUnit":"m.s-1","parameterCategory":2,"la1":30.2991,"la2":30.254,"lo1":-89.0895,"lo2":-89.0444,"dy":0.0017,"dx":0.0017,"nx":28,"ny":28,"refTime":"2023-10-23T03:00:00:Z","depth":"4","parameterNumber":3,"parameterNumberName":"V-component_of_CURRENTS"},"data":[0,0,0,0,0,0,0,0,0,0,0,0,0,0,0,0,0,0,0,0,0,0,0,0,0,0,0,0,0,0,0,0,0,0,0,0,0,0,0,0,0,0,0,0,0,0,0,0,0,0,0,0,0,0,0,0,0,0,0.0195,0.0195,0,0.0157,0.0156,0.0156,0.0137,0.0137,0.0137,0.0138,0.004,0.0038,0.0035,0,0,0,0,0,0,0,0,0,0,0,0,0,0.0173,0.0174,0.0195,0.0195,0.0195,0.0157,0.0156,0.0156,0.0137,0.0137,0.0138,0.0138,0.0041,0.0038,0.0035,0,0,0,0,0,0,0,0,0,0,0,0,0,0.0161,0.0174,0.0195,0.0183,0.0182,0.0157,0.0156,0.0155,0.0137,0.0137,0.0138,0.0138,0.0042,0.0038,0.0034,0.0001,0,0,0.0021,0.0019,0,0,0,0,0,0,0,0,0.0162,0.0162,0.0185,0.0184,0.0182,0.0154,0.0113,0.0102,0.0137,0.0151,0.0138,0.0138,0.0074,0.0068,0.0057,-0.0004,-0.0008,0.0021,0.0018,0.0016,0.0015,0,0,0,0,0,0,0,0.0163,0.0163,0.0177,0.0185,0.0183,0.0152,0.0151,0.011,0.0108,0.015,0.0149,0.0149,0.0073,0.0061,0.0054,-0.0009,0.0021,0.0017,0.0015,0.0013,-0.0086,-0.0086,0,0,0,0,0,0,0.0177,0.0164,0.0179,0.0177,0.0176,0.0153,0.0152,0.0161,0.011,0.0104,0.0149,0.0148,0.0068,0.0059,0.0051,0.002,0.0016,0.0012,0.001,-0.0086,-0.0086,-0.0086,0,0,0,0,0,0,0.0177,0.0179,0.018,0.0171,0.0169,0.0154,0.0163,0.016,0.0154,0.011,0.0102,0.0148,0.0068,0.0057,0.0025,0.0016,0.0011,0.0007,-0.0086,-0.0086,-0.0086,-0.0049,0,0,0,0,0,0,0.0176,0.0179,0.019,0.0172,0.017,0.0176,0.0163,0.0159,0.0155,0.0154,0.0106,0.0098,0.0067,0.0032,0.0021,0.001,0.0003,-0.0086,-0.0086,-0.0086,-0.005,-0.0048,-0.0046,0,0,0,0,0,0.0176,0.0196,0.0191,0.0192,0.0186,0.0177,0.0173,0.016,0.0154,0.0155,0.0125,0.0099,0.0023,0.0028,0.0015,0.0003,-0.0086,-0.0086,-0.0086,-0.0051,-0.0048,-0.0046,0,0,0,0,0,0,0.0189,0.0196,0.0189,0.021,0.0197,0.0175,0.0181,0.0164,0.0141,0.0141,0.0096,0.0085,0.0059,0.0025,0.0032,-0.0025,-0.0036,-0.0039,-0.0005,-0.0003,-0.0001,0.0008,-0.0,0,0,0,0,0,0.0198,0.0217,0.0206,0.022,0.0222,0.0199,0.0194,0.0182,0.016,0.015,0.0116,0.0078,0.0045,0.0019,-0.001,-0.005,-0.0084,-0.0065,-0.0063,-0.0061,-0.0062,-0.0119,-0.0123,-0.0087,-0.0087,-0.0087,0,0,0.0209,0.0212,0.0223,0.0224,0.0217,0.0215,0.0198,0.0196,0.0184,0.0141,0.0119,0.0089,0.0041,0.0008,-0.001,-0.0023,-0.0087,-0.0061,-0.0059,-0.0061,-0.012,-0.0124,-0.0127,-0.0087,-0.0087,-0.0087,0,0,0.0231,0.0243,0.0262,0.0256,0.0249,0.0234,0.0236,0.0215,0.0201,0.0173,0.0144,0.011,0.0055,0.0018,-0.0009,-0.0017,-0.0064,-0.0028,-0.0027,-0.0082,-0.0086,-0.0089,-0.0128,-0.0136,-0.004,-0.004,-0.004,0,0.0237,0.0261,0.0262,0.027,0.0267,0.0246,0.0249,0.0231,0.0196,0.0177,0.0175,0.0092,0.0059,0.0004,0.0007,-0.0013,-0.0048,-0.0031,-0.008,-0.0084,-0.0088,-0.0128,-0.0136,-0.0038,-0.0038,-0.0039,-0.0039,0,0.0268,0.0282,0.0295,0.0299,0.0291,0.0296,0.0272,0.0257,0.0236,0.0207,0.0162,0.0115,0.0061,0.0045,0.0024,-0.0029,-0.0043,-0.0059,-0.0085,-0.009,-0.0131,-0.014,-0.0036,-0.0036,-0.0037,-0.0037,0,0,0.0288,0.0313,0.0316,0.0317,0.0307,0.0301,0.0287,0.0259,0.0241,0.0203,0.0166,0.0115,0.0086,0.0055,0.0014,-0.0035,-0.0086,-0.0059,-0.0063,-0.0095,-0.0204,-0.0183,-0.0191,-0.0116,-0.0118,-0.0119,-0.0217,0,0.0306,0.0332,0.0333,0.0339,0.0348,0.0324,0.0309,0.0276,0.0244,0.0204,0.0148,0.0107,0.0088,0.006,0.0009,-0.0066,-0.0111,-0.0057,-0.0197,-0.02,-0.018,-0.0202,-0.0124,-0.0224,-0.0227,-0.0228,-0.0229,0,0.033,0.0343,0.0365,0.0356,0.0358,0.0356,0.0322,0.0304,0.0247,0.0218,0.0163,0.0118,0.0041,0.0034,-0.01,-0.0068,-0.0126,-0.0179,-0.0185,-0.0186,-0.0198,-0.0222,-0.0248,-0.0246,-0.0245,-0.0244,-0.0242,0,0.0338,0.0355,0.0375,0.0377,0.037,0.0368,0.0357,0.0311,0.0294,0.0227,0.0202,0.0104,0.0054,-0.004,-0.0138,-0.0129,-0.0281,-0.0286,-0.0321,-0.032,-0.0326,-0.0321,-0.0371,-0.0371,-0.0371,-0.0371,-0.037,0,0.035,0.0362,0.0388,0.0397,0.0405,0.039,0.0382,0.0353,0.0314,0.029,0.0216,0.0168,0.0034,-0.0065,-0.015,-0.0267,-0.0295,-0.0325,-0.0349,-0.0306,-0.0298,-0.0332,-0.0326,-0.0374,-0.0374,-0.0373,-0.0372,0,0.035,0.0374,0.0395,0.0409,0.0414,0.042,0.0415,0.0405,0.0367,0.0332,0.0314,0.02,0.0067,-0.0061,-0.0226,-0.0277,-0.0393,-0.0421,-0.0359,-0.0378,-0.0391,-0.0382,-0.0479,-0.0479,-0.0479,-0.048,-0.048,0,0.0348,0.0368,0.0407,0.0425,0.0437,0.0449,0.0454,0.0434,0.0424,0.0351,0.0333,0.0205,0.0119,-0.0099,-0.0233,-0.0406,-0.0415,-0.0465,-0.0428,-0.039,-0.0405,-0.0395,-0.0387,-0.048,-0.048,-0.048,-0.048,0,0.0338,0.0368,0.0386,0.043,0.0456,0.047,0.048,0.0481,0.0452,0.0428,0.0343,0.0227,0.0076,-0.0095,-0.0229,-0.0348,-0.0433,-0.0467,-0.0467,-0.0433,-0.0392,-0.0405,-0.0396,-0.0481,-0.0481,-0.0481,-0.048,0,0.0327,0.0344,0.0384,0.0413,0.0452,0.0472,0.0482,0.0471,0.046,0.0404,0.0374,0.0215,0.0121,-0.0066,-0.0193,-0.031,-0.0329,-0.0342,-0.0349,-0.035,-0.0275,-0.0203,-0.0261,0,0,0,0,0,0.031,0.0328,0.0357,0.0394,0.0435,0.0456,0.0483,0.0491,0.0485,0.044,0.0411,0.0277,0.0077,-0.0025,-0.0138,-0.0202,-0.0356,-0.0336,-0.0375,-0.0484,-0.0483,-0.0416,0,0,0,0,0,0,0.0298,0.033,0.0345,0.0368,0.0392,0.0431,0.0454,0.0456,0.0431,0.0414,0.0303,0.0265,0.0059,0.0136,-0.014,-0.0178,-0.0211,-0.0431,-0.0432,-0.0484,-0.0484,-0.0483,-0.0413,0,0,0,0,0]}]]